Coolidge Muni, Coolidge, AZ

4:01 AM MST on November 22, 2019 (GMT -0700)
Coolidge Muni, Coolidge

Weather History for KP08 - October, 2019

Change the Weather History Date:

Monday, October 21, 2019

  Actual Average (WUND) Record (WUND)
Temperature  
Mean Temperature 66 °F -  
Max Temperature 82 °F - - (-1)
Min Temperature 51 °F - - (-1)
Cooling Degree Days 2    
Growing Degree Days 16 (Base 50)    
Moisture  
Dew Point 15 °F    
Average Humidity 15    
Maximum Humidity 26    
Minimum Humidity 7    
Precipitation  
Precipitation 0.00 in - - ()
Sea Level Pressure  
Sea Level Pressure 30.01 in    
Wind  
Wind Speed 6 mph ()    
Max Wind Speed 10 mph    
Max Gust Speed 15 mph    
Visibility 9.6 miles    
Events      
Averages and records for this station are not official NWS values.
T = Trace of Precipitation, MM = Missing Value Source: Averaged Metar Reports

Daily Weather History Graph

Daily Weather History Graph

Search for Another Location

Airport or City:

Astronomy

Oct. 21, 2019 Rise Set
Actual Time 6:34 AM MST 5:45 PM MST
Civil Twilight 6:09 AM MST 6:10 PM MST
Nautical Twilight 5:40 AM MST 6:39 PM MST
Astronomical Twilight 5:11 AM MST 7:08 PM MST
Moon No Moon Rise 1:44 PM MST (10/21)
Length of Visible Light 12h 01m
Length of Day
11h 11m
Waning Gibbous, 47% of the Moon is Illuminated
Oct 21
Waning Gibbous
Oct 27
New
Nov 4
First Quarter
Nov 12
Full
Nov 19
Last Quarter

Hourly Weather History & Observations

Time (MST) Temp. Dew Point Humidity Pressure Visibility Wind Dir Wind Speed Gust Speed Precip Events Conditions
12:15 AM 57.2 °F 15.8 °F 20% 29.92 in 10.0 mi SSE 6.9 mph - N/A   Clear
12:35 AM 57.2 °F 15.8 °F 20% 29.94 in 10.0 mi South 6.9 mph - N/A   Clear
12:55 AM 57.2 °F 15.8 °F 20% 29.95 in 10.0 mi South 6.9 mph - N/A   Clear
1:15 AM 55.4 °F 14.0 °F 20% 29.93 in 7.0 mi SSE 8.1 mph - N/A   Clear
1:35 AM 57.2 °F 14.0 °F 18% 29.93 in 10.0 mi South 4.6 mph - N/A   Clear
1:55 AM 57.2 °F 14.0 °F 18% 29.94 in 10.0 mi SSE 5.8 mph - N/A   Clear
2:15 AM 55.4 °F 14.0 °F 20% 29.94 in 9.0 mi SSE 6.9 mph - N/A   Clear
2:35 AM 55.4 °F 14.0 °F 20% 29.95 in 10.0 mi SE 6.9 mph - N/A   Clear
2:55 AM 53.6 °F 14.0 °F 21% 29.94 in 10.0 mi SSE 6.9 mph - N/A   Clear
3:15 AM 55.4 °F 14.0 °F 20% 29.95 in 9.0 mi ESE 4.6 mph - N/A   Clear
3:35 AM 51.8 °F 15.8 °F 24% 29.95 in 10.0 mi ESE 5.8 mph - N/A   Clear
3:55 AM 51.8 °F 15.8 °F 24% 29.95 in 10.0 mi ESE 6.9 mph - N/A   Clear
4:15 AM 51.8 °F 15.8 °F 24% 29.95 in 10.0 mi ESE 6.9 mph - N/A   Clear
4:35 AM 51.8 °F 15.8 °F 24% 29.96 in 8.0 mi ESE 9.2 mph - N/A   Clear
4:55 AM 51.8 °F 15.8 °F 24% 29.97 in 10.0 mi ESE 6.9 mph - N/A   Clear
5:15 AM 51.8 °F 17.6 °F 26% 29.97 in 8.0 mi ESE 9.2 mph - N/A   Clear
5:35 AM 51.8 °F 17.6 °F 26% 29.98 in 10.0 mi SE 6.9 mph - N/A   Clear
5:55 AM 51.8 °F 15.8 °F 24% 29.98 in 10.0 mi ESE 5.8 mph - N/A   Clear
6:15 AM 51.8 °F 15.8 °F 24% 29.99 in 10.0 mi ESE 8.1 mph - N/A   Clear
6:35 AM 51.8 °F 17.6 °F 26% 30.00 in 6.0 mi ESE 5.8 mph - N/A   Haze
6:55 AM 51.8 °F 17.6 °F 26% 30.01 in 5.0 mi ESE 8.1 mph - N/A   Haze
7:15 AM 53.6 °F 17.6 °F 24% 30.02 in 7.0 mi East 4.6 mph - N/A   Clear
7:35 AM 57.2 °F 17.6 °F 21% 30.03 in 9.0 mi ESE 4.6 mph - N/A   Clear
7:55 AM 57.2 °F 17.6 °F 21% 30.03 in 6.0 mi SE 4.6 mph - N/A   Haze
8:15 AM 62.6 °F 17.6 °F 18% 30.04 in 6.0 mi Calm Calm - N/A   Haze
8:35 AM 66.2 °F 17.6 °F 15% 30.05 in 10.0 mi NE 3.5 mph - N/A   Clear
8:55 AM 68.0 °F 17.6 °F 15% 30.06 in 10.0 mi North 5.8 mph - N/A   Clear
9:15 AM 68.0 °F 17.6 °F 15% 30.06 in 10.0 mi North 3.5 mph - N/A   Clear
9:35 AM 69.8 °F 17.6 °F 14% 30.06 in 10.0 mi NNW 4.6 mph - N/A   Clear
9:55 AM 69.8 °F 17.6 °F 14% 30.06 in 10.0 mi Calm Calm - N/A   Clear
10:15 AM 73.4 °F 17.6 °F 12% 30.06 in 10.0 mi Calm Calm - N/A   Clear
10:35 AM 73.4 °F 15.8 °F 11% 30.05 in 10.0 mi Calm Calm - N/A   Clear
10:55 AM 75.2 °F 14.0 °F 10% 30.05 in 10.0 mi Variable 4.6 mph - N/A   Clear
11:15 AM 77.0 °F 15.8 °F 10% 30.05 in 10.0 mi WNW 6.9 mph - N/A   Clear
11:35 AM 77.0 °F 17.6 °F 11% 30.05 in 10.0 mi NW 6.9 mph - N/A   Clear
11:55 AM 78.8 °F 15.8 °F 9% 30.05 in 10.0 mi WNW 6.9 mph - N/A   Clear
12:15 PM 78.8 °F 12.2 °F 8% 30.04 in 10.0 mi WNW 6.9 mph - N/A   Clear
12:35 PM 78.8 °F 10.4 °F 7% 30.03 in 10.0 mi Calm Calm - N/A   Clear
12:55 PM 80.6 °F 10.4 °F 7% 30.02 in 10.0 mi West 5.8 mph - N/A   Clear
1:15 PM 80.6 °F 12.2 °F 8% 30.01 in 10.0 mi Variable 5.8 mph - N/A   Clear
1:35 PM 82.4 °F 10.4 °F 7% 30.00 in 10.0 mi NW 6.9 mph - N/A   Clear
1:55 PM 82.4 °F 10.4 °F 7% 29.99 in 10.0 mi WNW 9.2 mph - N/A   Clear
2:15 PM 82.4 °F 12.2 °F 7% 29.99 in 10.0 mi Variable 6.9 mph 15.0 mph N/A   Clear
2:35 PM 82.4 °F 12.2 °F 7% 29.99 in 10.0 mi NW 10.4 mph - N/A   Clear
2:55 PM 82.4 °F 12.2 °F 7% 29.99 in 10.0 mi WNW 10.4 mph - N/A   Clear
3:15 PM 82.4 °F 12.2 °F 7% 29.99 in 10.0 mi West 9.2 mph - N/A   Clear
3:35 PM 82.4 °F 12.2 °F 7% 29.99 in 10.0 mi West 8.1 mph - N/A   Clear
3:55 PM 82.4 °F 12.2 °F 7% 29.99 in 10.0 mi West 9.2 mph - N/A   Clear
4:15 PM 82.4 °F 12.2 °F 7% 29.99 in 10.0 mi West 10.4 mph - N/A   Clear
4:35 PM 82.4 °F 12.2 °F 7% 29.99 in 10.0 mi West 9.2 mph - N/A   Clear
4:55 PM 80.6 °F 14.0 °F 8% 29.99 in 10.0 mi WNW 6.9 mph - N/A   Clear
5:15 PM 80.6 °F 15.8 °F 9% 30.00 in 10.0 mi WNW 5.8 mph - N/A   Clear
5:35 PM 78.8 °F 17.6 °F 10% 30.00 in 10.0 mi West 4.6 mph - N/A   Clear
5:55 PM 75.2 °F 19.4 °F 12% 30.01 in 10.0 mi Calm Calm - N/A   Clear
6:15 PM 75.2 °F 17.6 °F 11% 30.01 in 10.0 mi NNW 4.6 mph - N/A   Clear
6:35 PM 73.4 °F 17.6 °F 12% 30.02 in 10.0 mi Calm Calm - N/A   Clear
6:55 PM 73.4 °F 17.6 °F 12% 30.02 in 10.0 mi Calm Calm - N/A   Clear
7:15 PM 68.0 °F 14.0 °F 12% 30.03 in 10.0 mi Calm Calm - N/A   Clear
7:35 PM 66.2 °F 15.8 °F 14% 30.04 in 10.0 mi SSE 4.6 mph - N/A   Clear
7:55 PM 66.2 °F 15.8 °F 14% 30.04 in 10.0 mi SSE 5.8 mph - N/A   Clear
8:15 PM 64.4 °F 14.0 °F 14% 30.04 in 10.0 mi SE 6.9 mph - N/A   Clear
8:55 PM 64.4 °F 14.0 °F 14% 30.05 in 10.0 mi ESE 9.2 mph - N/A   Mostly Cloudy
9:15 PM 64.4 °F 14.0 °F 14% 30.05 in 10.0 mi ESE 9.2 mph - N/A   Overcast
9:35 PM 64.4 °F 14.0 °F 14% 30.06 in 10.0 mi ESE 9.2 mph - N/A   Mostly Cloudy
9:55 PM 62.6 °F 14.0 °F 15% 30.07 in 10.0 mi ESE 9.2 mph - N/A   Mostly Cloudy
10:15 PM 62.6 °F 14.0 °F 15% 30.07 in 10.0 mi ESE 9.2 mph - N/A   Partly Cloudy
10:35 PM 62.6 °F 14.0 °F 15% 30.07 in 10.0 mi ESE 9.2 mph - N/A   Clear
10:55 PM 62.6 °F 14.0 °F 15% 30.07 in 10.0 mi ESE 9.2 mph - N/A   Mostly Cloudy
11:15 PM 62.6 °F 14.0 °F 15% 30.07 in 10.0 mi ESE 9.2 mph - N/A   Overcast
11:35 PM 62.6 °F 14.0 °F 15% 30.07 in 10.0 mi ESE 9.2 mph - N/A   Mostly Cloudy
11:55 PM 60.8 °F 14.0 °F 16% 30.08 in 10.0 mi ESE 9.2 mph - N/A   Clear